Regional Weather Roundup
Issued by NWS

Home | Current Version | Previous Version | Graphics & Text | Print | Product List | Glossary On
Versions: 1 2 3 4 5 6 7 8 9 10 11 12 13 14 15 16 17 18 19 20 21 22 23 24 25 26 27 28
000
ASUS45 KBOU 310907
RWRCO

WEATHER ROUNDUP FOR COLORADO
NATIONAL WEATHER SERVICE DENVER/BOULDER CO
300 AM MDT FRI OCT 31 2014

NOTE: "FAIR" INDICATES FEW OR NO CLOUDS BELOW 12000 FEET WITH NO
SIGNIFICANT WEATHER AND/OR OBSTRUCTIONS TO VISIBILITY.

COZ001>005-013-030-031-311000-
...NORTHWEST COLORADO...

CITY           SKY/WX    TMP DP  RH WIND       PRES   REMARKS
CRAIG          CLEAR     26  22  84 W5        30.26F WCI  20
HAYDEN         CLEAR     36  25  64 SE10      30.27F
MEEKER         CLEAR     32  26  78 CALM      30.27S
MOUNT WERNER   NOT AVBL
STEAMBOAT SPGS CLEAR     34  26  74 CALM      30.29F
WALDEN         CLEAR     25  21  86 SE6       30.36S WCI  18
$$

COZ006>008-011-311000-
...WEST CENTRAL VALLEYS...

CITY           SKY/WX    TMP DP  RH WIND       PRES   REMARKS
GRAND JUNCTION PTCLDY    37  25  61 E3        30.20S
MONTROSE       CLEAR     37  25  61 SE7       30.28R
EAGLE          CLEAR     28  25  86 CALM      30.37S
RIFLE          CLEAR     35  25  66 CALM      30.26S
DELTA          CLEAR     37  25  61 CALM      30.26S
NUCLA          CLEAR     41  23  48 E10       30.30R
$$

COZ017>023-064>068-311000-
...SOUTHWEST COLORADO...

CITY           SKY/WX    TMP DP  RH WIND       PRES   REMARKS
DURANGO        PTCLDY    35  25  66 N5        30.36R WCI  31
CORTEZ         CLEAR     35  23  61 NE5       30.28R WCI  31
PAGOSA SPRINGS PTCLDY    32  22  67 CALM      30.40F
TELLURIDE      PTCLDY    49  15  26 E3        30.43R
WOLF CREEK PAS CLEAR     32  12  43 SW14      30.57S WCI  22
$$

COZ009-010-012-014-032>034-037-058>063-311000-
...CENTRAL COLORADO...

CITY           SKY/WX    TMP DP  RH WIND       PRES   REMARKS
ASPEN          CLEAR     31  20  63 VRB3      30.33F
BUENA VISTA    CLEAR     26  20  77 W6        30.46S WCI  19
COPPER MTN     CLEAR     41  -2  16 S21       30.53F
BERTHOUD PASS  FAIR      32  30  93 W12       30.55S WCI  23
COTTONWOOD PAS CLEAR     34  21  60 NE3       30.48F
GUNNISON       CLEAR     27  14  59 CALM      30.42S
KREMMLING      CLEAR     27  21  80 CALM      30.39F
LEADVILLE      CLEAR     26  17  68 NE5       30.47F WCI  20
MONARCH PASS   CLEAR     36  12  38 S10       30.64F
SALIDA         CLEAR     33  22  65 CALM      30.52F
SUNLIGHT       CLEAR     41  18  38 CALM      30.47F
WILKERSON PASS NOT AVBL
$$

COZ069>075-311000-
...SAN LUIS VALLEY/SANGRE DE CRISTO MOUNTAINS...

CITY           SKY/WX    TMP DP  RH WIND       PRES   REMARKS
ALAMOSA        PTCLDY    29  17  61 S5        30.39S WCI  24
LA VETA PASS   CLEAR     34  19  55 SW3       30.49F
SAGUACHE       PTCLDY    32  14  47 NW10      30.41S WCI  24
$$

COZ035-036-038>040-311000-
...NORTHERN COLORADO FRONT RANGE...

CITY           SKY/WX    TMP DP  RH WIND       PRES   REMARKS
DENVER INTL AP PTCLDY    36  26  67 SE7       30.37F
DMNS CITY PARK   N/A     37  28  68 E3        30.35F
AURORA         CLEAR     41  25  53 S15       30.37F
FRONT RANGE AP PTCLDY    43  28  56 S15       30.37F
ERIE MUNI ARPT PTCLDY    31  27  84 CALM      30.37F
BOULDER MUN AP PTCLDY    37  28  70 N3        30.37S
CENTENNIAL     CLEAR     43  25  49 S14G22    30.36F
BROOMFIELD     PTCLDY    37  28  70 W8        30.37F
FORT COLLINS   CLEAR     36  25  64 N5        30.40F
LONGMONT       CLEAR     39  31  70 N6        30.39F
$$

COZ041-046-047-076>085-087-088-311000-
...PIKES PEAK/PALMER DIVIDE AND SOUTHERN FOOTHILLS...

CITY           SKY/WX    TMP DP  RH WIND       PRES   REMARKS
COLO. SPRINGS  CLEAR     39  24  55 E9        30.43F
A. F. ACADEMY  CLEAR     35  22  59 S7        30.42F WCI  29
ELLICOTT       CLEAR     36  24  62 SE8       30.42F
FALCON         CLEAR     34  23  66 S6        30.44F WCI  28
FORT CARSON    CLEAR     41  24  49 S3        30.42F
LIMON          CLEAR     25  22  88 CALM      30.43F
MONUMENT HILL  CLEAR     36  23  60 S14       30.40F
TRINIDAD       CLEAR     36  22  56 W7        30.42S
$$

COZ042>045-048>051-090-091-311000-
...NORTHEAST COLORADO...

CITY           SKY/WX    TMP DP  RH WIND       PRES   REMARKS
GREELEY ARPT   CLEAR     36  25  64 E7        30.40F
AKRON          CLEAR     31  28  89 SE12      30.42S WCI  22
BURLINGTON     CLEAR     31  26  82 E7        30.45S WCI  24
WRAY           CLEAR     32  29  88 E3        30.46R
STERLING       NOT AVBL
HOLYOKE        CLEAR     30  27  86 E6        30.45F WCI  24
FORT MORGAN    CLEAR     31  27  85 E8        30.42F WCI  24
$$

COZ086-089-092>099-311000-
...SOUTHEAST COLORADO...

CITY           SKY/WX    TMP DP  RH WIND       PRES   REMARKS
PUEBLO         PTCLDY    35  27  72 W5        30.41S WCI  31
LA JUNTA       CLEAR     37  25  61 E7        30.42S
LAMAR          CLEAR     33  25  72 E3        30.42R
SPRINGFIELD      N/A     35  25  66 NE6       30.43S WCI  30
$$



USA.gov is the U.S. government's official web portal to all federal, state and local government web resources and services.